Time,TemperatureF,DewpointF,PressureIn,WindDirection,WindDirectionDegrees,WindSpeedMPH,WindSpeedGustMPH,Humidity,HourlyPrecipIn,Conditions,Clouds,dailyrainin,SoftwareType,DateUTC
2013-09-18 00:01:00,50.0,43.7,30.36,NNW,338,0.0,0.0,79,0.00,,,0.00,WeatherCatV1.15B25,2013-09-18 04:01:00,
2013-09-18 00:06:00,49.9,43.6,30.36,NNW,338,0.0,0.0,79,0.00,,,0.00,WeatherCatV1.15B25,2013-09-18 04:06:00,
2013-09-18 00:11:00,50.0,43.7,30.36,NNW,338,0.0,0.0,79,0.00,,,0.00,WeatherCatV1.15B25,2013-09-18 04:11:00,
2013-09-18 00:16:00,50.0,43.4,30.36,NNW,338,0.0,0.0,78,0.00,,,0.00,WeatherCatV1.15B25,2013-09-18 04:16:00,
2013-09-18 00:21:00,50.0,43.4,30.36,NNW,338,0.0,0.0,78,0.00,,,0.00,WeatherCatV1.15B25,2013-09-18 04:21:00,
2013-09-18 00:26:00,50.0,43.1,30.36,NNW,338,0.0,0.0,77,0.00,,,0.00,WeatherCatV1.15B25,2013-09-18 04:26:00,
2013-09-18 00:31:00,50.0,43.4,30.36,NNW,338,0.0,0.0,78,0.00,,,0.00,WeatherCatV1.15B25,2013-09-18 04:31:00,
2013-09-18 00:36:00,50.0,43.4,30.36,NNW,338,0.0,0.0,78,0.00,,,0.00,WeatherCatV1.15B25,2013-09-18 04:36:00,
2013-09-18 00:41:00,50.0,43.4,30.35,NNW,338,0.0,0.0,78,0.00,,,0.00,WeatherCatV1.15B25,2013-09-18 04:41:00,
2013-09-18 00:46:00,49.9,43.3,30.36,NNW,338,0.0,0.0,78,0.00,,,0.00,WeatherCatV1.15B25,2013-09-18 04:46:00,
2013-09-18 00:51:00,50.0,43.4,30.36,NNW,338,0.0,0.0,78,0.00,,,0.00,WeatherCatV1.15B25,2013-09-18 04:51:00,
2013-09-18 00:56:00,50.0,43.4,30.36,NNW,338,0.0,0.0,78,0.00,,,0.00,WeatherCatV1.15B25,2013-09-18 04:56:00,
2013-09-18 01:01:00,50.0,43.4,30.36,NNW,338,0.0,0.0,78,0.00,,,0.00,WeatherCatV1.15B25,2013-09-18 05:01:00,
2013-09-18 01:06:00,50.0,43.4,30.36,NNW,338,0.0,0.0,78,0.00,,,0.00,WeatherCatV1.15B25,2013-09-18 05:06:00,
2013-09-18 01:11:00,49.6,43.4,30.36,NNW,338,0.0,0.0,79,0.00,,,0.00,WeatherCatV1.15B25,2013-09-18 05:11:00,
2013-09-18 01:16:00,49.3,43.1,30.36,NNW,338,0.0,0.0,79,0.00,,,0.00,WeatherCatV1.15B25,2013-09-18 05:16:00,
2013-09-18 01:21:00,49.1,42.9,30.36,NNW,338,0.0,0.0,79,0.00,,,0.00,WeatherCatV1.15B25,2013-09-18 05:21:00,
2013-09-18 01:26:00,49.0,42.4,30.36,NNW,338,0.0,0.0,78,0.00,,,0.00,WeatherCatV1.15B25,2013-09-18 05:26:00,
2013-09-18 01:31:00,49.0,42.4,30.36,NNW,338,0.0,0.0,78,0.00,,,0.00,WeatherCatV1.15B25,2013-09-18 05:31:00,
2013-09-18 01:36:00,49.0,42.4,30.35,NNW,338,0.0,0.0,78,0.00,,,0.00,WeatherCatV1.15B25,2013-09-18 05:36:00,
2013-09-18 01:41:00,49.0,42.4,30.35,NNW,338,0.0,0.0,78,0.00,,,0.00,WeatherCatV1.15B25,2013-09-18 05:41:00,
2013-09-18 01:46:00,49.1,42.2,30.36,NNW,338,0.0,0.0,77,0.00,,,0.00,WeatherCatV1.15B25,2013-09-18 05:46:00,
2013-09-18 01:51:00,49.1,42.2,30.35,NNW,338,0.0,0.0,77,0.00,,,0.00,WeatherCatV1.15B25,2013-09-18 05:51:00,
2013-09-18 01:56:00,49.1,42.2,30.35,NNW,338,0.0,0.0,77,0.00,,,0.00,WeatherCatV1.15B25,2013-09-18 05:56:00,
2013-09-18 02:01:00,49.1,42.2,30.35,NNW,338,0.0,0.0,77,0.00,,,0.00,WeatherCatV1.15B25,2013-09-18 06:01:00,
2013-09-18 02:06:00,49.1,41.9,30.35,NNW,338,0.0,0.0,76,0.00,,,0.00,WeatherCatV1.15B25,2013-09-18 06:06:00,
2013-09-18 02:11:00,49.1,41.9,30.35,NNW,338,0.0,0.0,76,0.00,,,0.00,WeatherCatV1.15B25,2013-09-18 06:11:00,
2013-09-18 02:16:00,49.2,41.6,30.35,NNW,338,0.0,0.0,75,0.00,,,0.00,WeatherCatV1.15B25,2013-09-18 06:16:00,
2013-09-18 02:21:00,49.2,42.0,30.35,NNW,338,0.0,0.0,76,0.00,,,0.00,WeatherCatV1.15B25,2013-09-18 06:21:00,
2013-09-18 02:26:00,49.3,41.7,30.35,NNW,338,0.0,0.0,75,0.00,,,0.00,WeatherCatV1.15B25,2013-09-18 06:26:00,
2013-09-18 02:31:00,49.2,41.3,30.35,NNW,338,0.0,0.0,74,0.00,,,0.00,WeatherCatV1.15B25,2013-09-18 06:31:00,
2013-09-18 02:36:00,49.2,41.3,30.34,NNW,338,0.0,0.0,74,0.00,,,0.00,WeatherCatV1.15B25,2013-09-18 06:36:00,
2013-09-18 02:41:00,49.2,41.6,30.34,NNW,338,0.0,0.0,75,0.00,,,0.00,WeatherCatV1.15B25,2013-09-18 06:41:00,
2013-09-18 02:46:00,49.2,42.0,30.34,NNW,338,0.0,0.0,76,0.00,,,0.00,WeatherCatV1.15B25,2013-09-18 06:46:00,
2013-09-18 02:51:00,49.2,42.0,30.35,NNW,338,0.0,0.0,76,0.00,,,0.00,WeatherCatV1.15B25,2013-09-18 06:51:00,
2013-09-18 02:56:00,49.2,42.0,30.34,NNW,338,0.0,0.0,76,0.00,,,0.00,WeatherCatV1.15B25,2013-09-18 06:56:00,
2013-09-18 03:01:00,49.2,42.0,30.34,NNW,338,0.0,0.0,76,0.00,,,0.00,WeatherCatV1.15B25,2013-09-18 07:01:00,
2013-09-18 03:06:00,49.2,42.0,30.34,NNW,338,0.0,0.0,76,0.00,,,0.00,WeatherCatV1.15B25,2013-09-18 07:06:00,
2013-09-18 03:11:00,49.1,42.2,30.34,NNW,338,0.0,0.0,77,0.00,,,0.00,WeatherCatV1.15B25,2013-09-18 07:11:00,
2013-09-18 03:16:00,49.0,42.1,30.34,NNW,338,0.0,0.0,77,0.00,,,0.00,WeatherCatV1.15B25,2013-09-18 07:16:00,
2013-09-18 03:21:00,48.9,42.0,30.34,NNW,338,0.0,0.0,77,0.00,,,0.00,WeatherCatV1.15B25,2013-09-18 07:21:00,
2013-09-18 03:26:00,48.8,41.9,30.34,NNW,338,0.0,0.0,77,0.00,,,0.00,WeatherCatV1.15B25,2013-09-18 07:26:00,
2013-09-18 03:31:00,48.8,42.2,30.34,NNW,338,0.0,0.0,78,0.00,,,0.00,WeatherCatV1.15B25,2013-09-18 07:31:00,
2013-09-18 03:36:00,48.8,42.6,30.34,NNW,338,0.0,0.0,79,0.00,,,0.00,WeatherCatV1.15B25,2013-09-18 07:36:00,
2013-09-18 03:41:00,48.9,42.7,30.34,NNW,338,0.0,0.0,79,0.00,,,0.00,WeatherCatV1.15B25,2013-09-18 07:41:00,
2013-09-18 03:46:00,48.8,42.9,30.34,NNW,338,0.0,0.0,80,0.00,,,0.00,WeatherCatV1.15B25,2013-09-18 07:46:00,
2013-09-18 03:51:00,48.7,43.1,30.34,NNW,338,0.0,0.0,81,0.00,,,0.00,WeatherCatV1.15B25,2013-09-18 07:51:00,
2013-09-18 03:56:00,48.7,43.1,30.34,NNW,338,0.0,0.0,81,0.00,,,0.00,WeatherCatV1.15B25,2013-09-18 07:56:00,
2013-09-18 04:01:00,48.6,43.0,30.33,NNW,338,0.0,0.0,81,0.00,,,0.00,WeatherCatV1.15B25,2013-09-18 08:01:00,
2013-09-18 04:06:00,48.6,43.4,30.33,NNW,338,0.0,0.0,82,0.00,,,0.00,WeatherCatV1.15B25,2013-09-18 08:06:00,
2013-09-18 04:11:00,48.5,43.3,30.33,NNW,338,0.0,0.0,82,0.00,,,0.00,WeatherCatV1.15B25,2013-09-18 08:11:00,
2013-09-18 04:16:00,48.5,43.3,30.33,NNW,338,0.0,0.0,82,0.00,,,0.00,WeatherCatV1.15B25,2013-09-18 08:16:00,
2013-09-18 04:21:00,48.4,43.5,30.33,NNW,338,0.0,0.0,83,0.00,,,0.00,WeatherCatV1.15B25,2013-09-18 08:21:00,
2013-09-18 04:26:00,48.3,43.1,30.33,NNW,338,0.0,0.0,82,0.00,,,0.00,WeatherCatV1.15B25,2013-09-18 08:26:00,
2013-09-18 04:31:00,48.1,42.9,30.33,NNW,338,0.0,0.0,82,0.00,,,0.00,WeatherCatV1.15B25,2013-09-18 08:31:00,
2013-09-18 04:36:00,48.0,43.1,30.33,NNW,338,0.0,0.0,83,0.00,,,0.00,WeatherCatV1.15B25,2013-09-18 08:36:00,
2013-09-18 04:41:00,47.9,43.0,30.33,NNW,338,0.0,0.0,83,0.00,,,0.00,WeatherCatV1.15B25,2013-09-18 08:41:00,
2013-09-18 04:46:00,47.8,42.9,30.33,NNW,338,0.0,0.0,83,0.00,,,0.00,WeatherCatV1.15B25,2013-09-18 08:46:00,
2013-09-18 04:51:00,47.7,42.8,30.33,NNW,338,0.0,0.0,83,0.00,,,0.00,WeatherCatV1.15B25,2013-09-18 08:51:00,
2013-09-18 04:56:00,47.6,42.7,30.33,NNW,338,0.0,0.0,83,0.00,,,0.00,WeatherCatV1.15B25,2013-09-18 08:56:00,
2013-09-18 05:01:00,47.6,42.7,30.33,NNW,338,0.0,0.0,83,0.00,,,0.00,WeatherCatV1.15B25,2013-09-18 09:01:00,
2013-09-18 05:06:00,47.6,42.7,30.33,NNW,338,0.0,0.0,83,0.00,,,0.00,WeatherCatV1.15B25,2013-09-18 09:06:00,
2013-09-18 05:11:00,47.6,42.4,30.33,NNW,338,0.0,0.0,82,0.00,,,0.00,WeatherCatV1.15B25,2013-09-18 09:11:00,
2013-09-18 05:16:00,47.5,42.3,30.33,NNW,338,0.0,0.0,82,0.00,,,0.00,WeatherCatV1.15B25,2013-09-18 09:16:00,
2013-09-18 05:21:00,47.5,42.3,30.33,NNW,338,0.0,0.0,82,0.00,,,0.00,WeatherCatV1.15B25,2013-09-18 09:21:00,
2013-09-18 05:26:00,47.4,42.2,30.33,NNW,338,0.0,0.0,82,0.00,,,0.00,WeatherCatV1.15B25,2013-09-18 09:26:00,
2013-09-18 05:31:00,47.4,42.5,30.33,NNW,338,0.0,0.0,83,0.00,,,0.00,WeatherCatV1.15B25,2013-09-18 09:31:00,
2013-09-18 05:36:00,47.3,42.4,30.33,NNW,338,0.0,0.0,83,0.00,,,0.00,WeatherCatV1.15B25,2013-09-18 09:36:00,
2013-09-18 05:41:00,47.3,42.4,30.33,NNW,338,0.0,0.0,83,0.00,,,0.00,WeatherCatV1.15B25,2013-09-18 09:41:00,
2013-09-18 05:46:00,47.2,42.3,30.33,NNW,338,0.0,0.0,83,0.00,,,0.00,WeatherCatV1.15B25,2013-09-18 09:46:00,
2013-09-18 05:51:00,47.2,42.3,30.33,NNW,338,0.0,0.0,83,0.00,,,0.00,WeatherCatV1.15B25,2013-09-18 09:51:00,
2013-09-18 05:56:00,47.2,42.6,30.33,NNW,338,0.0,0.0,84,0.00,,,0.00,WeatherCatV1.15B25,2013-09-18 09:56:00,
2013-09-18 06:01:00,47.2,42.6,30.33,NNW,338,0.0,0.0,84,0.00,,,0.00,WeatherCatV1.15B25,2013-09-18 10:01:00,
2013-09-18 06:06:00,47.2,42.6,30.33,NNW,338,0.0,0.0,84,0.00,,,0.00,WeatherCatV1.15B25,2013-09-18 10:06:00,
2013-09-18 06:11:00,47.1,42.5,30.33,NNW,338,0.0,0.0,84,0.00,,,0.00,WeatherCatV1.15B25,2013-09-18 10:11:00,
2013-09-18 06:16:00,47.0,42.7,30.34,NNW,338,0.0,0.0,85,0.00,,,0.00,WeatherCatV1.15B25,2013-09-18 10:16:00,
2013-09-18 06:21:00,47.0,43.0,30.33,NNW,338,0.0,0.0,86,0.00,,,0.00,WeatherCatV1.15B25,2013-09-18 10:21:00,
2013-09-18 06:26:00,46.9,42.9,30.33,NNW,338,0.0,0.0,86,0.00,,,0.00,WeatherCatV1.15B25,2013-09-18 10:26:00,
2013-09-18 06:31:00,46.9,43.2,30.33,NNW,338,0.0,0.0,87,0.00,,,0.00,WeatherCatV1.15B25,2013-09-18 10:31:00,
2013-09-18 06:36:00,46.8,43.1,30.34,NNW,338,0.0,0.0,87,0.00,,,0.00,WeatherCatV1.15B25,2013-09-18 10:36:00,
2013-09-18 06:41:00,46.8,43.1,30.33,NNW,338,0.0,0.0,87,0.00,,,0.00,WeatherCatV1.15B25,2013-09-18 10:41:00,
2013-09-18 06:46:00,46.7,43.0,30.34,NNW,338,0.0,0.0,87,0.00,,,0.00,WeatherCatV1.15B25,2013-09-18 10:46:00,
2013-09-18 06:51:00,46.7,43.0,30.34,NNW,338,0.0,0.0,87,0.00,,,0.00,WeatherCatV1.15B25,2013-09-18 10:51:00,
2013-09-18 06:56:00,46.8,43.1,30.33,NNW,338,0.0,0.0,87,0.00,,,0.00,WeatherCatV1.15B25,2013-09-18 10:56:00,
2013-09-18 07:00:00,46.8,43.1,30.34,NNW,338,0.0,0.0,87,0.00,,,0.00,WeatherCatV1.15B25,2013-09-18 11:00:00,
2013-09-18 07:01:00,46.9,43.2,30.34,NNW,338,0.0,0.0,87,0.00,,,0.00,WeatherCatV1.15B25,2013-09-18 11:01:00,
2013-09-18 07:05:00,46.9,43.2,30.34,NNW,338,0.0,0.0,87,0.00,,,0.00,WeatherCatV1.15B25,2013-09-18 11:05:00,
2013-09-18 07:10:00,46.9,43.2,30.34,NNW,338,0.0,0.0,87,0.00,,,0.00,WeatherCatV1.15B25,2013-09-18 11:10:00,
2013-09-18 07:15:00,46.9,43.2,30.34,NNW,338,0.0,0.0,87,0.00,,,0.00,WeatherCatV1.15B25,2013-09-18 11:15:00,
2013-09-18 07:20:00,47.2,43.4,30.33,NNW,338,0.0,0.0,87,0.00,,,0.00,WeatherCatV1.15B25,2013-09-18 11:20:00,
2013-09-18 07:25:00,47.2,43.4,30.33,NNW,338,0.0,0.0,87,0.00,,,0.00,WeatherCatV1.15B25,2013-09-18 11:25:00,
2013-09-18 07:30:00,47.2,43.4,30.33,NNW,338,0.0,0.0,87,0.00,,,0.00,WeatherCatV1.15B25,2013-09-18 11:30:00,
2013-09-18 07:35:00,47.2,43.4,30.33,NNW,338,0.0,0.0,87,0.00,,,0.00,WeatherCatV1.15B25,2013-09-18 11:35:00,
2013-09-18 07:40:00,47.2,43.4,30.33,NNW,338,0.0,0.0,87,0.00,,,0.00,WeatherCatV1.15B25,2013-09-18 11:40:00,
2013-09-18 07:45:00,48.0,43.8,30.33,NNW,338,0.0,0.0,86,0.00,,,0.00,WeatherCatV1.15B25,2013-09-18 11:45:00,
2013-09-18 07:50:00,48.0,43.8,30.33,NNW,338,0.0,0.0,86,0.00,,,0.00,WeatherCatV1.15B25,2013-09-18 11:50:00,
2013-09-18 07:55:00,48.0,43.8,30.33,NNW,338,0.0,0.0,86,0.00,,,0.00,WeatherCatV1.15B25,2013-09-18 11:55:00,
2013-09-18 08:00:00,48.0,43.8,30.33,NNW,338,0.0,0.0,86,0.00,,,0.00,WeatherCatV1.15B25,2013-09-18 12:00:00,
2013-09-18 08:05:00,48.0,43.8,30.33,NNW,338,0.0,0.0,86,0.00,,,0.00,WeatherCatV1.15B25,2013-09-18 12:05:00,
2013-09-18 08:10:00,48.0,43.8,30.33,NNW,338,0.0,0.0,86,0.00,,,0.00,WeatherCatV1.15B25,2013-09-18 12:10:00,
2013-09-18 08:15:00,48.0,43.8,30.33,NNW,338,0.0,0.0,86,0.00,,,0.00,WeatherCatV1.15B25,2013-09-18 12:15:00,
2013-09-18 08:20:00,48.8,44.2,30.32,NNW,338,0.0,0.0,84,0.00,,,0.00,WeatherCatV1.15B25,2013-09-18 12:20:00,
2013-09-18 08:25:00,48.8,44.2,30.32,NNW,338,0.0,0.0,84,0.00,,,0.00,WeatherCatV1.15B25,2013-09-18 12:25:00,
2013-09-18 08:30:00,48.8,44.2,30.32,NNW,338,0.0,0.0,84,0.00,,,0.00,WeatherCatV1.15B25,2013-09-18 12:30:00,
2013-09-18 08:35:00,48.8,44.2,30.32,NNW,338,0.0,0.0,84,0.00,,,0.00,WeatherCatV1.15B25,2013-09-18 12:35:00,
2013-09-18 08:40:00,48.8,44.2,30.32,NNW,338,0.0,0.0,84,0.00,,,0.00,WeatherCatV1.15B25,2013-09-18 12:40:00,
2013-09-18 08:45:00,48.8,44.2,30.32,NNW,338,0.0,0.0,84,0.00,,,0.00,WeatherCatV1.15B25,2013-09-18 12:45:00,
2013-09-18 08:50:00,49.6,44.6,30.31,NNW,337,0.0,0.0,83,0.00,,,0.00,WeatherCatV1.15B25,2013-09-18 12:50:00,
2013-09-18 08:55:00,49.6,44.6,30.31,NNW,337,0.0,0.0,83,0.00,,,0.00,WeatherCatV1.15B25,2013-09-18 12:55:00,
2013-09-18 09:00:00,49.6,44.6,30.31,NNW,337,0.0,0.0,83,0.00,,,0.00,WeatherCatV1.15B25,2013-09-18 13:00:00,
2013-09-18 09:05:00,49.6,44.6,30.31,NNW,337,0.0,0.0,83,0.00,,,0.00,WeatherCatV1.15B25,2013-09-18 13:05:00,
2013-09-18 09:10:00,49.6,44.6,30.31,NNW,337,0.0,0.0,83,0.00,,,0.00,WeatherCatV1.15B25,2013-09-18 13:10:00,
2013-09-18 09:15:00,50.4,45.0,30.31,NNW,337,0.0,0.0,82,0.00,,,0.00,WeatherCatV1.15B25,2013-09-18 13:15:00,
2013-09-18 09:20:00,50.4,45.0,30.31,NNW,337,0.0,0.0,82,0.00,,,0.00,WeatherCatV1.15B25,2013-09-18 13:20:00,
2013-09-18 09:25:00,50.4,45.0,30.31,NNW,337,0.0,0.0,82,0.00,,,0.00,WeatherCatV1.15B25,2013-09-18 13:25:00,
2013-09-18 09:30:00,50.4,45.0,30.31,NNW,337,0.0,0.0,82,0.00,,,0.00,WeatherCatV1.15B25,2013-09-18 13:30:00,
2013-09-18 09:35:00,50.4,45.0,30.31,NNW,337,0.0,0.0,82,0.00,,,0.00,WeatherCatV1.15B25,2013-09-18 13:35:00,
2013-09-18 09:40:00,50.4,45.0,30.31,NNW,337,0.0,0.0,82,0.00,,,0.00,WeatherCatV1.15B25,2013-09-18 13:40:00,
2013-09-18 09:45:00,50.4,45.0,30.31,NNW,337,0.0,0.0,82,0.00,,,0.00,WeatherCatV1.15B25,2013-09-18 13:45:00,
2013-09-18 09:50:00,51.2,45.4,30.30,NNW,337,0.0,0.0,81,0.00,,,0.00,WeatherCatV1.15B25,2013-09-18 13:50:00,
2013-09-18 09:55:00,51.2,45.4,30.30,NNW,337,0.0,0.0,81,0.00,,,0.00,WeatherCatV1.15B25,2013-09-18 13:55:00,
2013-09-18 10:00:00,51.2,45.4,30.30,NNW,337,0.0,0.0,81,0.00,,,0.00,WeatherCatV1.15B25,2013-09-18 14:00:00,
2013-09-18 10:05:00,51.2,45.4,30.30,NNW,337,0.0,0.0,81,0.00,,,0.00,WeatherCatV1.15B25,2013-09-18 14:05:00,
2013-09-18 10:10:00,51.2,45.4,30.30,NNW,337,0.0,0.0,81,0.00,,,0.00,WeatherCatV1.15B25,2013-09-18 14:10:00,
2013-09-18 10:15:00,52.0,45.8,30.29,NNW,337,0.0,0.0,80,0.00,,,0.00,WeatherCatV1.15B25,2013-09-18 14:15:00,
2013-09-18 10:20:00,52.0,45.8,30.29,NNW,337,0.0,0.0,80,0.00,,,0.00,WeatherCatV1.15B25,2013-09-18 14:20:00,
2013-09-18 10:25:00,52.0,45.8,30.29,NNW,337,0.0,0.0,80,0.00,,,0.00,WeatherCatV1.15B25,2013-09-18 14:25:00,
2013-09-18 10:30:00,52.0,45.8,30.29,NNW,337,0.0,0.0,80,0.00,,,0.00,WeatherCatV1.15B25,2013-09-18 14:30:00,
2013-09-18 10:35:00,52.0,45.8,30.29,NNW,337,0.0,0.0,80,0.00,,,0.00,WeatherCatV1.15B25,2013-09-18 14:35:00,
2013-09-18 10:40:00,52.0,45.8,30.29,NNW,337,0.0,0.0,80,0.00,,,0.00,WeatherCatV1.15B25,2013-09-18 14:40:00,
2013-09-18 10:45:00,52.0,45.8,30.29,NNW,337,0.0,0.0,80,0.00,,,0.00,WeatherCatV1.15B25,2013-09-18 14:45:00,
2013-09-18 10:50:00,52.8,46.2,30.29,NNW,337,0.0,0.0,79,0.00,,,0.00,WeatherCatV1.15B25,2013-09-18 14:50:00,
2013-09-18 10:55:00,52.8,46.2,30.29,NNW,337,0.0,0.0,79,0.00,,,0.00,WeatherCatV1.15B25,2013-09-18 14:55:00,
2013-09-18 11:00:00,52.8,46.2,30.29,NNW,337,0.0,0.0,79,0.00,,,0.00,WeatherCatV1.15B25,2013-09-18 15:00:00,
2013-09-18 11:05:00,52.8,46.2,30.29,NNW,337,0.0,0.0,79,0.00,,,0.00,WeatherCatV1.15B25,2013-09-18 15:05:00,
2013-09-18 11:10:00,52.8,46.2,30.29,NNW,337,0.0,0.0,79,0.00,,,0.00,WeatherCatV1.15B25,2013-09-18 15:10:00,
2013-09-18 11:15:00,53.7,46.6,30.28,NNW,336,0.0,0.0,78,0.00,,,0.00,WeatherCatV1.15B25,2013-09-18 15:15:00,
2013-09-18 11:20:00,53.7,46.6,30.28,NNW,336,0.0,0.0,78,0.00,,,0.00,WeatherCatV1.15B25,2013-09-18 15:20:00,
2013-09-18 11:25:00,53.7,46.6,30.28,NNW,336,0.0,0.0,78,0.00,,,0.00,WeatherCatV1.15B25,2013-09-18 15:25:00,
2013-09-18 11:30:00,53.7,46.6,30.28,NNW,336,0.0,0.0,78,0.00,,,0.00,WeatherCatV1.15B25,2013-09-18 15:30:00,
2013-09-18 11:35:00,53.7,46.6,30.28,NNW,336,0.0,0.0,78,0.00,,,0.00,WeatherCatV1.15B25,2013-09-18 15:35:00,
2013-09-18 11:40:00,53.7,46.6,30.28,NNW,336,0.0,0.0,78,0.00,,,0.00,WeatherCatV1.15B25,2013-09-18 15:40:00,
2013-09-18 11:45:00,53.7,46.6,30.28,NNW,336,0.0,0.0,78,0.00,,,0.00,WeatherCatV1.15B25,2013-09-18 15:45:00,
2013-09-18 11:50:00,54.5,47.0,30.27,NNW,336,0.0,0.0,77,0.00,,,0.00,WeatherCatV1.15B25,2013-09-18 15:50:00,
2013-09-18 11:55:00,54.5,47.0,30.27,NNW,336,0.0,0.0,77,0.00,,,0.00,WeatherCatV1.15B25,2013-09-18 15:55:00,
2013-09-18 12:00:00,54.5,47.0,30.27,NNW,336,0.0,0.0,77,0.00,,,0.00,WeatherCatV1.15B25,2013-09-18 16:00:00,
2013-09-18 12:05:00,54.5,47.0,30.27,NNW,336,0.0,0.0,77,0.00,,,0.00,WeatherCatV1.15B25,2013-09-18 16:05:00,
2013-09-18 12:10:00,54.5,47.0,30.27,NNW,336,0.0,0.0,77,0.00,,,0.00,WeatherCatV1.15B25,2013-09-18 16:10:00,
2013-09-18 12:15:00,54.5,47.0,30.27,NNW,336,0.0,0.0,77,0.00,,,0.00,WeatherCatV1.15B25,2013-09-18 16:15:00,
2013-09-18 12:20:00,55.3,47.4,30.26,NNW,336,0.0,0.0,76,0.00,,,0.00,WeatherCatV1.15B25,2013-09-18 16:20:00,
2013-09-18 12:25:00,55.3,47.4,30.26,NNW,336,0.0,0.0,76,0.00,,,0.00,WeatherCatV1.15B25,2013-09-18 16:25:00,
2013-09-18 12:30:00,55.3,47.4,30.26,NNW,336,0.0,0.0,76,0.00,,,0.00,WeatherCatV1.15B25,2013-09-18 16:30:00,
2013-09-18 12:35:00,55.3,47.4,30.26,NNW,336,0.0,0.0,76,0.00,,,0.00,WeatherCatV1.15B25,2013-09-18 16:35:00,
2013-09-18 12:40:00,55.3,47.4,30.26,NNW,336,0.0,0.0,76,0.00,,,0.00,WeatherCatV1.15B25,2013-09-18 16:40:00,
2013-09-18 12:45:00,56.1,47.8,30.26,NNW,336,0.0,0.0,75,0.00,,,0.00,WeatherCatV1.15B25,2013-09-18 16:45:00,
2013-09-18 12:50:00,56.1,47.8,30.26,NNW,336,0.0,0.0,75,0.00,,,0.00,WeatherCatV1.15B25,2013-09-18 16:50:00,
2013-09-18 12:55:00,56.1,47.8,30.26,NNW,336,0.0,0.0,75,0.00,,,0.00,WeatherCatV1.15B25,2013-09-18 16:55:00,
2013-09-18 13:00:00,56.1,47.8,30.26,NNW,336,0.0,0.0,75,0.00,,,0.00,WeatherCatV1.15B25,2013-09-18 17:00:00,
2013-09-18 13:05:00,56.1,47.8,30.26,NNW,336,0.0,0.0,75,0.00,,,0.00,WeatherCatV1.15B25,2013-09-18 17:05:00,
2013-09-18 13:10:00,56.1,47.8,30.26,NNW,336,0.0,0.0,75,0.00,,,0.00,WeatherCatV1.15B25,2013-09-18 17:10:00,
2013-09-18 13:15:00,56.9,48.2,30.25,NNW,336,0.0,0.0,74,0.00,,,0.00,WeatherCatV1.15B25,2013-09-18 17:15:00,
2013-09-18 13:20:00,56.9,48.2,30.25,NNW,336,0.0,0.0,74,0.00,,,0.00,WeatherCatV1.15B25,2013-09-18 17:20:00,
2013-09-18 13:25:00,56.9,48.2,30.25,NNW,336,0.0,0.0,74,0.00,,,0.00,WeatherCatV1.15B25,2013-09-18 17:25:00,
2013-09-18 13:30:00,56.9,48.2,30.25,NNW,336,0.0,0.0,74,0.00,,,0.00,WeatherCatV1.15B25,2013-09-18 17:30:00,
2013-09-18 13:35:00,56.9,48.2,30.25,NNW,336,0.0,0.0,74,0.00,,,0.00,WeatherCatV1.15B25,2013-09-18 17:35:00,
2013-09-18 13:40:00,56.9,48.2,30.25,NNW,336,0.0,0.0,74,0.00,,,0.00,WeatherCatV1.15B25,2013-09-18 17:40:00,
2013-09-18 13:45:00,56.9,48.2,30.25,NNW,336,0.0,0.0,74,0.00,,,0.00,WeatherCatV1.15B25,2013-09-18 17:45:00,
2013-09-18 13:50:00,57.7,48.6,30.24,NNW,336,0.0,0.0,72,0.00,,,0.00,WeatherCatV1.15B25,2013-09-18 17:50:00,
2013-09-18 13:55:00,57.7,48.6,30.24,NNW,336,0.0,0.0,72,0.00,,,0.00,WeatherCatV1.15B25,2013-09-18 17:55:00,
2013-09-18 14:00:00,57.7,48.6,30.24,NNW,336,0.0,0.0,72,0.00,,,0.00,WeatherCatV1.15B25,2013-09-18 18:00:00,
2013-09-18 14:05:00,57.7,48.6,30.24,NNW,336,0.0,0.0,72,0.00,,,0.00,WeatherCatV1.15B25,2013-09-18 18:05:00,
2013-09-18 14:10:00,57.7,48.6,30.24,NNW,336,0.0,0.0,72,0.00,,,0.00,WeatherCatV1.15B25,2013-09-18 18:10:00,
2013-09-18 14:15:00,57.7,48.6,30.24,NNW,336,0.0,0.0,72,0.00,,,0.00,WeatherCatV1.15B25,2013-09-18 18:15:00,
2013-09-18 14:20:00,58.5,49.0,30.24,NNW,335,0.0,0.0,71,0.00,,,0.00,WeatherCatV1.15B25,2013-09-18 18:20:00,
2013-09-18 14:25:00,58.5,49.0,30.24,NNW,335,0.0,0.0,71,0.00,,,0.00,WeatherCatV1.15B25,2013-09-18 18:25:00,
2013-09-18 14:30:00,58.5,49.0,30.24,NNW,335,0.0,0.0,71,0.00,,,0.00,WeatherCatV1.15B25,2013-09-18 18:30:00,
2013-09-18 14:35:00,58.5,49.0,30.24,NNW,335,0.0,0.0,71,0.00,,,0.00,WeatherCatV1.15B25,2013-09-18 18:35:00,
2013-09-18 14:40:00,58.5,49.0,30.24,NNW,335,0.0,0.0,71,0.00,,,0.00,WeatherCatV1.15B25,2013-09-18 18:40:00,
2013-09-18 14:45:00,59.3,49.4,30.23,NNW,335,0.0,0.0,70,0.00,,,0.00,WeatherCatV1.15B25,2013-09-18 18:45:00,
2013-09-18 14:50:00,59.3,49.4,30.23,NNW,335,0.0,0.0,70,0.00,,,0.00,WeatherCatV1.15B25,2013-09-18 18:50:00,
2013-09-18 14:55:00,59.3,49.4,30.23,NNW,335,0.0,0.0,70,0.00,,,0.00,WeatherCatV1.15B25,2013-09-18 18:55:00,
2013-09-18 15:00:00,59.3,49.4,30.23,NNW,335,0.0,0.0,70,0.00,,,0.00,WeatherCatV1.15B25,2013-09-18 19:00:00,
2013-09-18 15:05:00,59.3,49.4,30.23,NNW,335,0.0,0.0,70,0.00,,,0.00,WeatherCatV1.15B25,2013-09-18 19:05:00,
2013-09-18 15:10:00,59.3,49.4,30.23,NNW,335,0.0,0.0,70,0.00,,,0.00,WeatherCatV1.15B25,2013-09-18 19:10:00,
2013-09-18 15:15:00,59.3,49.4,30.23,NNW,335,0.0,0.0,70,0.00,,,0.00,WeatherCatV1.15B25,2013-09-18 19:15:00,
2013-09-18 15:20:00,60.1,49.8,30.22,NNW,335,0.0,0.0,69,0.00,,,0.00,WeatherCatV1.15B25,2013-09-18 19:20:00,
2013-09-18 15:25:00,60.1,49.8,30.22,NNW,335,0.0,0.0,69,0.00,,,0.00,WeatherCatV1.15B25,2013-09-18 19:25:00,
2013-09-18 15:30:00,60.1,49.8,30.22,NNW,335,0.0,0.0,69,0.00,,,0.00,WeatherCatV1.15B25,2013-09-18 19:30:00,
2013-09-18 15:35:00,60.1,49.8,30.22,NNW,335,0.0,0.0,69,0.00,,,0.00,WeatherCatV1.15B25,2013-09-18 19:35:00,
2013-09-18 15:40:00,60.1,49.8,30.22,NNW,335,0.0,0.0,69,0.00,,,0.00,WeatherCatV1.15B25,2013-09-18 19:40:00,
2013-09-18 15:45:00,60.9,50.2,30.22,NNW,335,0.0,0.0,68,0.00,,,0.00,WeatherCatV1.15B25,2013-09-18 19:45:00,
2013-09-18 15:50:00,60.9,50.2,30.22,NNW,335,0.0,0.0,68,0.00,,,0.00,WeatherCatV1.15B25,2013-09-18 19:50:00,
2013-09-18 15:55:00,60.9,50.2,30.22,NNW,335,0.0,0.0,68,0.00,,,0.00,WeatherCatV1.15B25,2013-09-18 19:55:00,
2013-09-18 16:00:00,60.9,50.2,30.22,NNW,335,0.0,0.0,68,0.00,,,0.00,WeatherCatV1.15B25,2013-09-18 20:00:00,
2013-09-18 16:05:00,60.9,50.2,30.22,NNW,335,0.0,0.0,68,0.00,,,0.00,WeatherCatV1.15B25,2013-09-18 20:05:00,
2013-09-18 16:10:00,60.9,50.2,30.22,NNW,335,0.0,0.0,68,0.00,,,0.00,WeatherCatV1.15B25,2013-09-18 20:10:00,
2013-09-18 16:15:00,61.7,50.6,30.21,NNW,335,0.0,0.0,67,0.00,,,0.00,WeatherCatV1.15B25,2013-09-18 20:15:00,
2013-09-18 16:20:00,61.7,50.6,30.21,NNW,335,0.0,0.0,67,0.00,,,0.00,WeatherCatV1.15B25,2013-09-18 20:20:00,
2013-09-18 16:25:00,61.7,50.6,30.21,NNW,335,0.0,0.0,67,0.00,,,0.00,WeatherCatV1.15B25,2013-09-18 20:25:00,
2013-09-18 16:30:00,61.7,50.6,30.21,NNW,335,0.0,0.0,67,0.00,,,0.00,WeatherCatV1.15B25,2013-09-18 20:30:00,
2013-09-18 16:35:00,61.7,50.6,30.21,NNW,335,0.0,0.0,67,0.00,,,0.00,WeatherCatV1.15B25,2013-09-18 20:35:00,
2013-09-18 16:40:00,61.7,50.6,30.21,NNW,335,0.0,0.0,67,0.00,,,0.00,WeatherCatV1.15B25,2013-09-18 20:40:00,
2013-09-18 16:45:00,61.7,50.6,30.21,NNW,335,0.0,0.0,67,0.00,,,0.00,WeatherCatV1.15B25,2013-09-18 20:45:00,
2013-09-18 16:50:00,62.3,50.4,30.20,WNW,284,0.0,0.0,65,0.00,,,0.00,WeatherCatV1.15B25,2013-09-18 20:50:00,
2013-09-18 16:55:00,62.1,51.0,30.21,West,260,0.0,0.0,67,0.00,,,0.00,WeatherCatV1.15B25,2013-09-18 20:55:00,
2013-09-18 17:00:00,62.0,50.5,30.21,WSW,252,0.0,0.0,66,0.00,,,0.00,WeatherCatV1.15B25,2013-09-18 21:00:00,
2013-09-18 17:05:00,61.9,51.2,30.21,WSW,250,0.0,0.0,68,0.00,,,0.00,WeatherCatV1.15B25,2013-09-18 21:05:00,
2013-09-18 17:17:00,61.7,51.0,30.21,WSW,249,0.0,0.0,68,0.00,,,0.00,WeatherCatV1.15B25,2013-09-18 21:17:00,
2013-09-18 17:22:00,61.5,51.6,30.20,WSW,250,0.0,1.0,70,0.00,,,0.00,WeatherCatV1.15B25,2013-09-18 21:22:00,
2013-09-18 17:27:00,61.3,51.4,30.20,WSW,250,0.0,0.0,70,0.00,,,0.00,WeatherCatV1.15B25,2013-09-18 21:27:00,
2013-09-18 17:32:00,61.2,51.3,30.20,WSW,250,0.0,0.0,70,0.00,,,0.00,WeatherCatV1.15B25,2013-09-18 21:32:00,
2013-09-18 17:37:00,61.1,51.6,30.20,WSW,249,0.0,0.0,71,0.00,,,0.00,WeatherCatV1.15B25,2013-09-18 21:37:00,
2013-09-18 17:42:00,61.0,51.5,30.20,WSW,249,0.0,0.0,71,0.00,,,0.00,WeatherCatV1.15B25,2013-09-18 21:42:00,
2013-09-18 17:47:00,60.9,51.0,30.20,WSW,250,0.0,0.0,70,0.00,,,0.00,WeatherCatV1.15B25,2013-09-18 21:47:00,
2013-09-18 17:52:00,60.8,51.3,30.20,WSW,250,0.0,0.0,71,0.00,,,0.00,WeatherCatV1.15B25,2013-09-18 21:52:00,
2013-09-18 17:57:00,60.7,51.6,30.20,WSW,250,0.0,0.0,72,0.00,,,0.00,WeatherCatV1.15B25,2013-09-18 21:57:00,
2013-09-18 18:02:00,60.6,51.9,30.19,WSW,250,0.0,0.0,73,0.00,,,0.00,WeatherCatV1.15B25,2013-09-18 22:02:00,
2013-09-18 18:07:00,60.4,52.1,30.19,WSW,249,0.0,0.0,74,0.00,,,0.00,WeatherCatV1.15B25,2013-09-18 22:07:00,
2013-09-18 18:12:00,60.3,52.0,30.19,WSW,250,0.0,0.0,74,0.00,,,0.00,WeatherCatV1.15B25,2013-09-18 22:12:00,
2013-09-18 18:17:00,60.2,51.9,30.20,WSW,250,0.0,0.0,74,0.00,,,0.00,WeatherCatV1.15B25,2013-09-18 22:17:00,
2013-09-18 18:22:00,60.0,52.0,30.19,WSW,250,0.0,0.0,75,0.00,,,0.00,WeatherCatV1.15B25,2013-09-18 22:22:00,
2013-09-18 18:27:00,59.9,52.3,30.20,WSW,249,0.0,0.0,76,0.00,,,0.00,WeatherCatV1.15B25,2013-09-18 22:27:00,
2013-09-18 18:32:00,59.8,52.9,30.20,WSW,249,0.0,0.0,78,0.00,,,0.00,WeatherCatV1.15B25,2013-09-18 22:32:00,
2013-09-18 18:37:00,59.6,52.0,30.19,WSW,249,0.0,0.0,76,0.00,,,0.00,WeatherCatV1.15B25,2013-09-18 22:37:00,
2013-09-18 18:42:00,59.4,51.5,30.19,WSW,249,0.0,0.0,75,0.00,,,0.00,WeatherCatV1.15B25,2013-09-18 22:42:00,
2013-09-18 18:47:00,59.1,50.8,30.19,WSW,250,0.0,0.0,74,0.00,,,0.00,WeatherCatV1.15B25,2013-09-18 22:47:00,
2013-09-18 18:52:00,59.0,50.7,30.19,WSW,250,0.0,0.0,74,0.00,,,0.00,WeatherCatV1.15B25,2013-09-18 22:52:00,
2013-09-18 18:57:00,59.0,50.4,30.19,WSW,250,0.0,0.0,73,0.00,,,0.00,WeatherCatV1.15B25,2013-09-18 22:57:00,
2013-09-18 19:02:00,58.6,50.0,30.19,WSW,250,0.0,0.0,73,0.00,,,0.00,WeatherCatV1.15B25,2013-09-18 23:02:00,
2013-09-18 19:07:00,58.4,49.8,30.18,WSW,250,0.0,0.0,73,0.00,,,0.00,WeatherCatV1.15B25,2013-09-18 23:07:00,
2013-09-18 19:12:00,58.2,49.6,30.18,WSW,249,0.0,0.0,73,0.00,,,0.00,WeatherCatV1.15B25,2013-09-18 23:12:00,
2013-09-18 19:17:00,58.0,49.4,30.18,WSW,250,0.0,0.0,73,0.00,,,0.00,WeatherCatV1.15B25,2013-09-18 23:17:00,
2013-09-18 19:22:00,57.8,49.2,30.19,WSW,253,0.0,0.0,73,0.00,,,0.00,WeatherCatV1.15B25,2013-09-18 23:22:00,
2013-09-18 19:27:00,57.7,49.1,30.19,WSW,253,0.0,0.0,73,0.00,,,0.00,WeatherCatV1.15B25,2013-09-18 23:27:00,
2013-09-18 19:32:00,57.6,48.6,30.19,WSW,253,0.0,0.0,72,0.00,,,0.00,WeatherCatV1.15B25,2013-09-18 23:32:00,
2013-09-18 19:37:00,57.5,48.2,30.19,WSW,253,0.0,0.0,71,0.00,,,0.00,WeatherCatV1.15B25,2013-09-18 23:37:00,
2013-09-18 19:42:00,57.3,48.7,30.19,WSW,253,0.0,0.0,73,0.00,,,0.00,WeatherCatV1.15B25,2013-09-18 23:42:00,
2013-09-18 19:47:00,57.0,47.7,30.19,WSW,253,0.0,0.0,71,0.00,,,0.00,WeatherCatV1.15B25,2013-09-18 23:47:00,
2013-09-18 19:52:00,56.8,47.9,30.19,WSW,252,0.0,0.0,72,0.00,,,0.00,WeatherCatV1.15B25,2013-09-18 23:52:00,
2013-09-18 19:57:00,56.6,48.0,30.19,WSW,252,0.0,1.0,73,0.00,,,0.00,WeatherCatV1.15B25,2013-09-18 23:57:00,
2013-09-18 20:02:00,56.6,48.8,30.19,WSW,252,0.0,0.0,75,0.00,,,0.00,WeatherCatV1.15B25,2013-09-19 00:02:00,
2013-09-18 20:07:00,56.5,49.0,30.19,WSW,253,0.0,1.0,76,0.00,,,0.00,WeatherCatV1.15B25,2013-09-19 00:07:00,
2013-09-18 20:12:00,56.4,49.3,30.19,WSW,254,0.0,0.0,77,0.00,,,0.00,WeatherCatV1.15B25,2013-09-19 00:12:00,
2013-09-18 20:17:00,56.3,49.2,30.18,WSW,254,0.0,0.0,77,0.00,,,0.00,WeatherCatV1.15B25,2013-09-19 00:17:00,
2013-09-18 20:22:00,56.1,48.6,30.19,WSW,253,0.0,0.0,76,0.00,,,0.00,WeatherCatV1.15B25,2013-09-19 00:22:00,
2013-09-18 20:27:00,55.9,48.4,30.18,WSW,253,0.0,0.0,76,0.00,,,0.00,WeatherCatV1.15B25,2013-09-19 00:27:00,
2013-09-18 20:32:00,55.7,48.9,30.19,WSW,254,0.0,0.0,78,0.00,,,0.00,WeatherCatV1.15B25,2013-09-19 00:32:00,
2013-09-18 20:37:00,55.5,49.4,30.19,WSW,253,0.0,0.0,80,0.00,,,0.00,WeatherCatV1.15B25,2013-09-19 00:37:00,
2013-09-18 20:42:00,55.3,49.2,30.19,WSW,254,0.0,0.0,80,0.00,,,0.00,WeatherCatV1.15B25,2013-09-19 00:42:00,
2013-09-18 20:48:00,55.1,49.4,30.19,WSW,253,0.0,0.0,81,0.00,,,0.00,WeatherCatV1.15B25,2013-09-19 00:48:00,
2013-09-18 20:53:00,55.0,48.9,30.19,WSW,253,0.0,0.0,80,0.00,,,0.00,WeatherCatV1.15B25,2013-09-19 00:53:00,
2013-09-18 20:58:00,54.8,49.1,30.19,WSW,254,0.0,0.0,81,0.00,,,0.00,WeatherCatV1.15B25,2013-09-19 00:58:00,
2013-09-18 21:03:00,54.7,49.3,30.19,WSW,253,0.0,0.0,82,0.00,,,0.00,WeatherCatV1.15B25,2013-09-19 01:03:00,
2013-09-18 21:08:00,54.4,49.0,30.19,WSW,254,0.0,0.0,82,0.00,,,0.00,WeatherCatV1.15B25,2013-09-19 01:08:00,
2013-09-18 21:13:00,54.2,48.8,30.19,WSW,254,0.0,0.0,82,0.00,,,0.00,WeatherCatV1.15B25,2013-09-19 01:13:00,
2013-09-18 21:18:00,54.1,49.1,30.19,WSW,254,0.0,0.0,83,0.00,,,0.00,WeatherCatV1.15B25,2013-09-19 01:18:00,
2013-09-18 21:23:00,54.1,49.1,30.19,WSW,252,0.0,0.0,83,0.00,,,0.00,WeatherCatV1.15B25,2013-09-19 01:23:00,
2013-09-18 21:28:00,54.1,49.4,30.19,WSW,252,0.0,0.0,84,0.00,,,0.00,WeatherCatV1.15B25,2013-09-19 01:28:00,
2013-09-18 21:33:00,54.1,49.4,30.19,WSW,252,0.0,0.0,84,0.00,,,0.00,WeatherCatV1.15B25,2013-09-19 01:33:00,
2013-09-18 21:38:00,54.0,49.3,30.19,WSW,252,0.0,0.0,84,0.00,,,0.00,WeatherCatV1.15B25,2013-09-19 01:38:00,
2013-09-18 21:43:00,54.0,49.3,30.19,WSW,252,0.0,0.0,84,0.00,,,0.00,WeatherCatV1.15B25,2013-09-19 01:43:00,
2013-09-18 21:48:00,54.0,49.3,30.19,WSW,252,0.0,0.0,84,0.00,,,0.00,WeatherCatV1.15B25,2013-09-19 01:48:00,
2013-09-18 21:53:00,53.9,49.2,30.19,WSW,252,0.0,0.0,84,0.00,,,0.00,WeatherCatV1.15B25,2013-09-19 01:53:00,
2013-09-18 21:58:00,53.8,49.1,30.19,WSW,252,0.0,0.0,84,0.00,,,0.00,WeatherCatV1.15B25,2013-09-19 01:58:00,
2013-09-18 22:03:00,53.7,49.0,30.19,WSW,252,0.0,0.0,84,0.00,,,0.00,WeatherCatV1.15B25,2013-09-19 02:03:00,
2013-09-18 22:08:00,53.5,48.5,30.19,WSW,252,0.0,0.0,83,0.00,,,0.00,WeatherCatV1.15B25,2013-09-19 02:08:00,
2013-09-18 22:13:00,53.4,48.7,30.19,WSW,252,0.0,0.0,84,0.00,,,0.00,WeatherCatV1.15B25,2013-09-19 02:13:00,
2013-09-18 22:18:00,53.2,48.5,30.19,WSW,252,0.0,0.0,84,0.00,,,0.00,WeatherCatV1.15B25,2013-09-19 02:18:00,
2013-09-18 22:23:00,53.1,49.0,30.19,WSW,252,0.0,0.0,86,0.00,,,0.00,WeatherCatV1.15B25,2013-09-19 02:23:00,
2013-09-18 22:28:00,53.0,48.9,30.19,WSW,252,0.0,0.0,86,0.00,,,0.00,WeatherCatV1.15B25,2013-09-19 02:28:00,
2013-09-18 22:33:00,52.9,48.8,30.19,WSW,252,0.0,0.0,86,0.00,,,0.00,WeatherCatV1.15B25,2013-09-19 02:33:00,
2013-09-18 22:38:00,52.8,48.7,30.19,WSW,252,0.0,0.0,86,0.00,,,0.00,WeatherCatV1.15B25,2013-09-19 02:38:00,
2013-09-18 22:43:00,52.6,48.5,30.19,WSW,252,0.0,0.0,86,0.00,,,0.00,WeatherCatV1.15B25,2013-09-19 02:43:00,
2013-09-18 22:48:00,52.5,48.1,30.19,WSW,252,0.0,0.0,85,0.00,,,0.00,WeatherCatV1.15B25,2013-09-19 02:48:00,
2013-09-18 22:53:00,52.4,47.7,30.19,WSW,252,0.0,0.0,84,0.00,,,0.00,WeatherCatV1.15B25,2013-09-19 02:53:00,
2013-09-18 22:58:00,52.4,47.7,30.19,WSW,252,0.0,0.0,84,0.00,,,0.00,WeatherCatV1.15B25,2013-09-19 02:58:00,
2013-09-18 23:03:00,52.3,47.6,30.19,WSW,252,0.0,0.0,84,0.00,,,0.00,WeatherCatV1.15B25,2013-09-19 03:03:00,
2013-09-18 23:08:00,52.3,47.6,30.19,WSW,252,0.0,0.0,84,0.00,,,0.00,WeatherCatV1.15B25,2013-09-19 03:08:00,
2013-09-18 23:13:00,52.3,47.6,30.19,WSW,252,0.0,0.0,84,0.00,,,0.00,WeatherCatV1.15B25,2013-09-19 03:13:00,
2013-09-18 23:18:00,52.2,47.5,30.19,WSW,252,0.0,0.0,84,0.00,,,0.00,WeatherCatV1.15B25,2013-09-19 03:18:00,
2013-09-18 23:23:00,52.2,47.5,30.19,WSW,252,0.0,0.0,84,0.00,,,0.00,WeatherCatV1.15B25,2013-09-19 03:23:00,
2013-09-18 23:28:00,52.2,47.8,30.19,WSW,252,0.0,0.0,85,0.00,,,0.00,WeatherCatV1.15B25,2013-09-19 03:28:00,
2013-09-18 23:33:00,52.2,47.8,30.19,WSW,252,0.0,0.0,85,0.00,,,0.00,WeatherCatV1.15B25,2013-09-19 03:33:00,
2013-09-18 23:38:00,52.1,47.7,30.19,WSW,252,0.0,0.0,85,0.00,,,0.00,WeatherCatV1.15B25,2013-09-19 03:38:00,
2013-09-18 23:43:00,52.1,48.3,30.19,WSW,252,0.0,0.0,87,0.00,,,0.00,WeatherCatV1.15B25,2013-09-19 03:43:00,
2013-09-18 23:48:00,52.1,48.7,30.19,WSW,252,0.0,0.0,88,0.00,,,0.00,WeatherCatV1.15B25,2013-09-19 03:48:00,
2013-09-18 23:53:00,52.1,49.0,30.19,WSW,252,0.0,0.0,89,0.00,,,0.00,WeatherCatV1.15B25,2013-09-19 03:53:00,
2013-09-18 23:58:00,52.0,48.9,30.19,WSW,252,0.0,0.0,89,0.00,,,0.00,WeatherCatV1.15B25,2013-09-19 03:58:00,